StationID,Date,MaxTemp,MinTemp,Precipitation,Snowfall,SnowDepth
"CA003031092","2012-07-12",81.14,59.54,4.00,0.00,
"CA003031092","2012-07-13",78.08,60.08,2.00,0.00,
"CA003031092","2012-07-14",70.52,61.16,0.00,0.00,
"CA003031092","2012-07-15",65.12,56.66,262.00,0.00,
"CA003031092","2012-07-16",66.92,58.82,6.00,0.00,
"CA003031092","2012-07-17",75.74,58.46,0.00,0.00,
"CA003031092","2012-07-18",82.04,60.62,0.00,0.00,
"CA003031092","2012-07-19",74.66,54.14,0.00,0.00,
"CA003031092","2012-07-20",73.22,56.84,18.00,0.00,
"CA003031092","2012-07-21",78.08,53.24,0.00,0.00,
"CA003031092","2012-07-22",76.64,47.30,0.00,0.00,
"CA003031092","2012-07-23",73.76,53.96,54.00,0.00,
"CA003031092","2012-07-24",69.62,51.62,12.00,0.00,
"CA003031092","2012-07-25",73.04,55.22,10.00,0.00,
"CA003031092","2012-07-26",73.04,50.18,0.00,0.00,
"CA003031092","2012-07-27",82.58,51.26,0.00,0.00,
"CA003031092","2012-07-28",77.00,56.84,8.00,0.00,
"CA003031092","2012-07-29",78.44,50.72,0.00,0.00,
"CA003031092","2012-07-30",84.74,51.44,0.00,0.00,
"CA003031092","2012-07-31",77.54,51.26,8.00,0.00,
"CA003031092","2012-08-01",73.94,51.26,18.00,0.00,
"CA003031092","2012-08-02",64.58,48.02,54.00,0.00,
"CA003031092","2012-08-03",69.80,45.14,4.00,0.00,
"CA003031092","2012-08-04",79.88,56.30,0.00,0.00,
"CA003031092","2012-08-05",82.58,56.84,0.00,0.00,
"CA003031092","2012-08-06",86.36,57.56,0.00,0.00,
"CA003031092","2012-08-07",80.24,60.62,0.00,0.00,
"CA003031092","2012-08-08",83.30,54.50,0.00,0.00,
"CA003031092","2012-08-09",81.32,54.68,0.00,0.00,
"CA003031092","2012-08-10",75.92,52.88,0.00,0.00,
"CA003031092","2012-08-11",71.42,55.58,0.00,0.00,
"CA003031092","2012-08-12",75.02,53.78,80.00,0.00,
"CA003031092","2012-08-13",81.86,50.90,0.00,0.00,
"CA003031092","2012-08-14",73.58,49.10,40.00,0.00,
"CA003031092","2012-08-15",63.32,47.12,0.00,0.00,
"CA003031092","2012-08-16",74.84,41.54,0.00,0.00,
"CA003031092","2012-08-17",78.98,43.52,0.00,0.00,
"CA003031092","2012-08-18",82.58,49.10,0.00,0.00,
"CA003031092","2012-08-19",82.58,49.10,0.00,0.00,
"CA003031092","2012-08-20",84.92,52.52,0.00,0.00,
"CA003031092","2012-08-21",78.98,55.76,0.00,0.00,
"CA003031092","2012-08-22",77.18,53.96,0.00,0.00,
"CA003031092","2012-08-23",78.98,46.76,0.00,0.00,
"CA003031092","2012-08-24",61.52,44.60,132.00,0.00,
"CA003031092","2012-08-25",68.18,42.44,0.00,0.00,
"CA003031092","2012-08-26",74.84,41.72,0.00,0.00,
"CA003031092","2012-08-27",85.64,45.50,0.00,0.00,
"CA003031092","2012-08-28",85.46,57.38,0.00,0.00,
"CA003031092","2012-08-29",69.80,51.08,2.00,0.00,
"CA003031092","2012-08-30",71.24,43.70,0.00,0.00,
"CA003031092","2012-08-31",70.52,41.36,0.00,0.00,
"CA003031092","2012-09-01",65.30,47.84,8.00,0.00,
"CA003031092","2012-09-03",71.60,46.94,0.00,0.00,
"CA003031092","2012-09-04",67.28,44.06,8.00,0.00,
"CA003031092","2012-09-05",57.20,41.36,0.00,0.00,
"CA003031092","2012-09-06",66.92,41.00,0.00,0.00,
"CA003031092","2012-09-07",77.72,43.34,0.00,0.00,
"CA003031092","2012-09-08",80.42,47.48,0.00,0.00,
"CA003031092","2012-09-12",65.84,34.16,0.00,0.00,
"CA003031092","2012-09-13",77.00,48.56,0.00,0.00,
"CA003031092","2012-09-14",81.86,44.96,0.00,0.00,
"CA003031092","2012-09-15",67.82,42.08,0.00,0.00,
"CA003031092","2012-09-16",62.78,38.84,0.00,0.00,
"CA003031092","2012-09-17",76.82,39.56,0.00,0.00,
"CA003031092","2012-09-18",80.60,44.96,0.00,0.00,
"CA003031092","2012-09-19",75.38,39.20,0.00,0.00,
"CA003031092","2012-09-20",78.98,43.34,0.00,0.00,
"CA003031092","2012-09-21",78.08,41.36,0.00,0.00,
"CA003031092","2012-09-22",78.98,44.24,0.00,0.00,
"CA003031092","2012-09-23",76.10,43.34,0.00,0.00,
"CA003031092","2012-09-24",77.36,43.16,0.00,0.00,
"CA003031092","2012-09-25",65.12,43.52,6.00,0.00,
"CA003031092","2012-09-26",63.14,47.30,20.00,0.00,
"CA003031092","2012-09-27",70.88,38.84,0.00,0.00,
"CA003031092","2012-09-28",79.88,44.06,0.00,0.00,
"CA003031092","2012-09-29",70.16,47.30,0.00,0.00,
"CA003031092","2012-09-30",61.88,40.46,0.00,0.00,
"CA003031092","2012-10-01",75.38,41.54,4.00,0.00,
"CA003031092","2012-10-03",41.00,30.38,30.00,0.00,
"CA003031092","2012-10-05",45.50,29.48,0.00,0.00,
"CA003031092","2012-10-06",58.46,35.96,0.00,0.00,
"CA003031092","2012-10-07",67.10,35.42,0.00,0.00,
"CA003031092","2012-10-08",51.44,37.40,10.00,0.00,
"CA003031092","2012-10-12",63.86,34.16,0.00,0.00,
"CA003031092","2012-10-14",64.76,40.46,0.00,0.00,
"CA003031092","2012-10-15",66.38,43.88,0.00,0.00,
"CA003031092","2012-10-16",53.60,32.36,44.00,0.00,
"CA003031092","2012-10-17",49.28,28.04,0.00,0.00,
"CA003031092","2012-10-18",59.54,25.34,0.00,0.00,
"CA003031092","2012-10-19",62.78,35.60,0.00,0.00,
"CA003031092","2012-10-20",48.74,25.34,108.00,110.00,40.00
"CA003031092","2012-10-21",25.88,22.10,2.00,2.00,30.00
"CA003031092","2012-10-22",24.80,21.56,32.00,32.00,60.00
"CA003031092","2012-10-23",21.74,18.50,74.00,74.00,140.00
"CA003031092","2012-10-24",23.36,17.42,0.00,0.00,120.00
"CA003031092","2012-10-25",24.44,20.66,20.00,5.00,80.00
"CA003031092","2012-10-26",21.20,18.68,16.00,6.00,80.00
"CA003031092","2012-10-27",20.48,16.52,10.00,10.00,90.00
"CA003031092","2012-10-28",41.72,20.48,2.00,2.00,80.00
"CA003031092","2012-10-29",29.66,23.18,14.00,4.00,40.00
"CA003031092","2012-10-30",39.74,21.20,0.00,2.00,30.00
"CA003031092","2012-10-31",25.16,19.22,8.00,8.00,20.00
"CA003031092","2012-11-01",29.66,25.16,2.00,2.00,30.00
"CA003031092","2012-11-02",31.64,27.86,0.00,0.00,40.00
"CA003031092","2012-11-03",43.34,28.94,0.00,0.00,40.00
"CA003031092","2012-11-04",43.70,26.78,0.00,0.00,30.00
"CA003031092","2012-11-05",51.98,28.58,0.00,0.00,20.00
"CA003031092","2012-11-07",35.06,24.08,2.00,2.00,0.00
"CA003031092","2012-11-12",39.56,24.44,0.00,0.00,80.00
"CA003031092","2012-11-13",40.28,29.30,0.00,0.00,40.00
"CA003031092","2012-11-14",42.98,23.90,0.00,0.00,10.00
"CA003031092","2012-11-15",43.16,23.72,0.00,0.00,10.00
"CA003031092","2012-11-16",43.70,23.36,0.00,0.00,10.00
"CA003031092","2012-11-17",44.42,24.98,0.00,0.00,10.00
"CA003031092","2012-11-18",44.60,30.74,0.00,0.00,
"CA003031092","2012-11-21",11.66,7.34,30.00,80.00,30.00
"CA003031092","2012-11-23",43.52,13.82,0.00,0.00,70.00
"CA003031092","2012-11-24",35.24,16.52,0.00,0.00,50.00
"CA003031092","2012-11-25",33.08,16.16,0.00,0.00,40.00
"CA003031092","2012-11-26",30.56,14.18,0.00,0.00,30.00
"CA003031092","2012-11-27",29.48,10.94,,0.00,30.00
"CA003031092","2012-11-28",31.28,8.42,8.00,8.00,20.00
"CA003031092","2012-11-29",12.92,6.44,10.00,62.00,30.00
"CA003031092","2012-11-30",17.24,6.08,10.00,40.00,70.00
"CA003031092","2012-12-01",16.16,5.36,6.00,48.00,110.00
"CA003031092","2012-12-02",11.12,6.08,34.00,36.00,120.00
"CA003031092","2012-12-03",33.08,-0.94,0.00,0.00,150.00
"CA003031092","2012-12-04",44.96,13.28,0.00,0.00,120.00
"CA003031092","2012-12-05",39.92,21.02,5.00,0.00,80.00
"CA003031092","2012-12-06",31.28,13.82,0.00,0.00,80.00
"CA003031092","2012-12-07",24.44,2.12,0.00,0.00,30.00
"CA003031092","2012-12-08",12.56,-1.66,0.00,0.00,70.00
"CA003031092","2012-12-09",29.30,-4.54,0.00,0.00,70.00
"CA003031092","2012-12-10",31.46,19.40,0.00,0.00,60.00
"CA003031092","2012-12-11",38.84,18.14,0.00,0.00,30.00
"CA003031092","2012-12-13",36.68,3.20,0.00,0.00,40.00
"CA003031092","2012-12-14",34.88,10.94,0.00,0.00,40.00
"CA003031092","2012-12-15",23.00,4.82,0.00,0.00,40.00
"CA003031092","2012-12-16",32.72,15.98,0.00,0.00,30.00
"CA003031092","2012-12-17",23.54,10.04,10.00,0.00,10.00
"CA003031092","2012-12-18",21.56,1.94,0.00,0.00,10.00
"CA003031092","2012-12-19",24.62,0.86,0.00,0.00,10.00
"CA003031092","2012-12-20",32.90,6.26,0.00,0.00,10.00
"CA003031092","2012-12-21",6.44,-1.30,0.00,0.00,10.00
"CA003031092","2012-12-22",-1.30,-7.24,54.00,62.00,20.00
"CA003031092","2012-12-23",-2.02,-12.46,2.00,2.00,70.00
"CA003031092","2012-12-24",-4.36,-14.08,7.00,8.00,60.00
"CA003031092","2012-12-27",5.36,-12.64,0.00,0.00,60.00
"CA003031092","2012-12-28",33.44,-3.46,0.00,0.00,
"CA003031092","2012-12-29",30.38,21.38,0.00,0.00,50.00
"CA003031092","2012-12-30",25.88,6.62,0.00,0.00,50.00
"CA003031092","2012-12-31",34.70,16.16,0.00,0.00,40.00
"CA003031092","2013-01-01",34.16,15.98,0.00,0.00,40.00
"CA003031092","2013-01-02",42.44,12.38,0.00,0.00,30.00
"CA003031092","2013-01-03",47.84,16.16,0.00,0.00,20.00
"CA003031092","2013-01-04",37.22,11.84,0.00,0.00,20.00
"CA003031092","2013-01-05",40.64,14.00,0.00,0.00,10.00
"CA003031092","2013-01-07",36.32,14.18,0.00,0.00,10.00
"CA003031092","2013-01-08",34.34,25.52,0.00,0.00,10.00
"CA003031092","2013-01-10",21.74,6.62,24.00,210.00,90.00
"CA003031092","2013-01-11",11.12,-3.64,0.00,0.00,210.00
"CA003031092","2013-01-12",19.94,-1.84,0.00,0.00,140.00
"CA003031092","2013-01-15",46.40,34.34,0.00,0.00,80.00
"CA003031092","2013-01-16",45.14,23.72,0.00,0.00,80.00
"CA003031092","2013-01-17",48.92,20.48,0.00,0.00,50.00
"CA003031092","2013-01-18",46.22,26.96,0.00,0.00,20.00
"CA003031092","2013-01-24",37.58,7.88,0.00,0.00,10.00
"CA003031092","2013-01-25",42.08,21.02,0.00,0.00,10.00
"CA003031092","2013-01-26",31.28,11.30,0.00,0.00,10.00
"CA003031092","2013-01-27",35.60,12.74,0.00,0.00,10.00
"CA003031092","2013-01-29",10.58,-11.20,10.00,14.00,30.00
"CA003031092","2013-01-30",17.96,-3.82,12.00,20.00,20.00
"CA003031092","2013-01-31",33.44,0.14,5.00,5.00,40.00
"CA003031092","2013-02-01",45.86,23.54,0.00,0.00,40.00
"CA003031092","2013-02-02",47.30,19.04,0.00,0.00,30.00
"CA003031092","2013-02-06",43.88,21.38,0.00,0.00,
"CA003031092","2013-02-07",42.08,22.82,0.00,0.00,10.00
"CA003031092","2013-02-08",41.72,22.28,0.00,0.00,10.00
"CA003031092","2013-02-10",30.20,17.96,0.00,0.00,10.00
"CA003031092","2013-02-14",35.96,14.72,0.00,0.00,10.00
"CA003031092","2013-02-15",52.34,17.96,0.00,0.00,10.00
"CA003031092","2013-02-17",32.54,17.96,4.00,4.00,
"CA003031092","2013-02-21",34.88,8.42,0.00,0.00,
"CA003031092","2013-02-22",41.54,18.86,0.00,0.00,0.00
"CA003031092","2013-02-26",25.88,17.24,30.00,30.00,60.00
"CA003031092","2013-02-27",40.82,18.50,0.00,0.00,30.00
"CA003031092","2013-02-28",43.52,22.82,0.00,0.00,10.00
"CA003031092","2013-03-01",51.26,27.50,0.00,0.00,10.00
"CA003031092","2013-03-03",25.16,21.74,88.00,116.00,70.00
"CA003031092","2013-03-04",22.82,13.10,10.00,12.00,150.00
"CA003031092","2013-03-05",19.76,10.40,0.00,0.00,150.00
"CA003031092","2013-03-06",20.48,13.64,44.00,44.00,150.00
"CA003031092","2013-03-07",18.68,8.60,12.00,22.00,140.00
"CA003031092","2013-03-08",32.90,9.68,0.00,0.00,110.00
"CA003031092","2013-03-11",30.74,22.28,0.00,0.00,30.00
"CA003031092","2013-03-12",40.64,19.76,0.00,0.00,30.00
"CA003031092","2013-03-15",19.58,7.16,0.00,0.00,30.00
"CA003031092","2013-03-16",16.52,8.96,0.00,0.00,30.00
"CA003031092","2013-03-17",12.92,5.00,14.00,18.00,20.00
"CA003031092","2013-03-18",27.32,4.46,4.00,4.00,20.00
"CA003031092","2013-03-19",35.96,8.42,0.00,0.00,30.00
"CA003031092","2013-03-20",57.02,25.34,0.00,0.00,10.00
"CA003031092","2013-03-22",25.34,11.66,0.00,0.00,10.00
"CA003031092","2013-03-23",25.88,8.96,0.00,0.00,10.00
"CA003031092","2013-03-24",32.00,8.96,0.00,0.00,10.00
"CA003031092","2013-03-25",41.00,17.24,0.00,0.00,0.00
"CA003031092","2013-03-30",51.44,29.48,0.00,0.00,
"CA003031092","2013-04-01",50.72,23.72,0.00,0.00,
"CA003031092","2013-04-02",66.56,25.34,0.00,0.00,
"CA003031092","2013-04-04",43.52,27.86,0.00,0.00,
"CA003031092","2013-04-05",42.08,26.06,0.00,0.00,
"CA003031092","2013-04-07",28.58,20.12,26.00,56.00,10.00
"CA003031092","2013-04-10",50.72,27.14,0.00,0.00,
"CA003031092","2013-04-11",39.38,29.30,54.00,48.00,10.00
"CA003031092","2013-04-12",42.62,19.04,0.00,0.00,
"CA003031092","2013-04-15",26.96,16.16,10.00,14.00,80.00
"CA003031092","2013-04-16",33.08,19.58,0.00,0.00,60.00
"CA003031092","2013-04-17",43.52,14.00,0.00,0.00,20.00
"CA003031092","2013-04-18",48.74,28.04,0.00,0.00,10.00
"CA003031092","2013-04-22",48.02,16.88,0.00,0.00,
"CA003031092","2013-04-23",46.94,24.44,0.00,0.00,
"CA003031092","2013-04-24",57.02,26.42,0.00,0.00,
"CA003031092","2013-04-25",64.22,37.22,0.00,0.00,
"CA003031092","2013-04-28",61.70,36.14,0.00,0.00,
"CA003031092","2013-05-01",51.62,17.06,0.00,0.00,
"CA003031092","2013-05-02",66.20,32.00,0.00,0.00,
"CA003031092","2013-05-04",65.84,36.68,0.00,0.00,
"CA003031092","2013-05-05",74.12,37.40,0.00,0.00,
"CA003031092","2013-05-06",81.14,42.44,0.00,0.00,
"CA003031092","2013-05-07",60.80,45.32,0.00,0.00,
"CA003031092","2013-05-08",69.98,39.92,0.00,0.00,
"CA003031092","2013-05-09",79.34,41.54,0.00,0.00,
"CA003031092","2013-05-11",81.32,41.54,0.00,0.00,
"CA003031092","2013-05-12",83.48,57.20,0.00,0.00,
"CA003031092","2013-05-13",70.88,50.54,0.00,0.00,
"CA003031092","2013-05-14",59.36,45.32,0.00,0.00,
"CA003031092","2013-05-15",77.72,42.80,0.00,0.00,
"CA003031092","2013-05-17",62.96,33.80,0.00,0.00,
"CA003031092","2013-05-18",69.62,,,,
"CA003031092","2013-05-19",61.16,45.50,2.00,0.00,
"CA003031092","2013-05-20",68.18,37.94,0.00,0.00,
"CA003031092","2013-05-21",72.32,42.62,0.00,0.00,
"CA003031092","2013-05-23",57.38,43.52,234.00,0.00,
"CA003031092","2013-05-24",46.40,39.38,512.00,0.00,
"CA003031092","2013-05-25",58.82,38.84,80.00,0.00,
"CA003031092","2013-05-26",64.22,35.42,0.00,0.00,
"CA003031092","2013-05-27",66.56,40.28,2.00,0.00,
"CA003031092","2013-05-28",62.96,46.22,18.00,0.00,
"CA003031092","2013-05-29",61.88,47.30,56.00,0.00,
"CA003031092","2013-05-30",53.78,48.38,108.00,0.00,
"CA003031092","2013-05-31",60.26,47.66,34.00,0.00,
"CA003031092","2013-06-01",62.96,41.72,0.00,0.00,
"CA003031092","2013-06-02",54.86,46.58,254.00,0.00,
"CA003031092","2013-06-03",57.20,45.86,164.00,0.00,
"CA003031092","2013-06-04",66.38,37.40,0.00,0.00,
"CA003031092","2013-06-05",73.40,43.34,0.00,0.00,
"CA003031092","2013-06-06",71.78,43.52,0.00,0.00,
"CA003031092","2013-06-07",73.58,49.64,6.00,0.00,
"CA003031092","2013-06-08",65.84,45.86,12.00,0.00,
"CA003031092","2013-06-09",58.64,43.34,6.00,0.00,
"CA003031092","2013-06-12",67.82,44.60,0.00,0.00,
"CA003031092","2013-06-13",62.42,44.06,28.00,0.00,
"CA003031092","2013-06-14",61.34,43.52,78.00,0.00,
"CA003031092","2013-06-15",66.38,47.48,46.00,0.00,
"CA003031092","2013-06-16",65.84,45.86,0.00,0.00,
"CA003031092","2013-06-17",70.88,48.74,20.00,0.00,
"CA003031092","2013-06-18",66.74,52.16,64.00,0.00,
"CA003031092","2013-06-19",63.86,54.32,78.00,0.00,
"CA003031092","2013-06-20",62.78,51.98,450.00,0.00,
"CA003031092","2013-06-21",59.54,48.56,230.00,0.00,
"CA003031092","2013-06-22",66.02,42.26,6.00,0.00,
"CA003031092","2013-06-23",69.08,46.04,12.00,0.00,
"CA003031092","2013-06-24",68.36,44.24,0.00,0.00,
"CA003031092","2013-06-25",70.70,50.36,12.00,0.00,
"CA003031092","2013-06-26",73.22,48.92,0.00,0.00,
"CA003031092","2013-06-27",73.58,50.54,0.00,0.00,
"CA003031092","2013-06-28",74.66,51.98,0.00,0.00,
"CA003031092","2013-06-29",78.08,54.14,0.00,0.00,
"CA003031092","2013-06-30",76.28,54.86,0.00,0.00,
"CA003031092","2013-07-01",80.42,59.18,0.00,0.00,
"CA003031092","2013-07-02",91.04,62.24,0.00,0.00,
"CA003031092","2013-07-03",77.00,60.80,0.00,0.00,
"CA003031092","2013-07-04",75.20,56.30,18.00,0.00,
"CA003031092","2013-07-05",67.10,52.16,112.00,0.00,
"CA003031092","2013-07-06",61.70,44.96,8.00,0.00,
"CA003031092","2013-07-07",67.28,41.36,0.00,0.00,
"CA003031092","2013-07-08",60.44,52.70,118.00,0.00,
"CA003031092","2013-07-09",77.36,45.86,0.00,0.00,
"CA003031092","2013-07-10",81.50,53.24,0.00,0.00,
"CA003031092","2013-07-11",79.34,52.34,0.00,0.00,
"CA003031092","2013-07-12",69.44,47.84,0.00,0.00,
"CA003031092","2013-07-13",63.86,46.58,44.00,0.00,
"CA003031092","2013-07-14",72.32,48.38,0.00,0.00,
"CA003031092","2013-07-15",61.16,46.04,6.00,0.00,
"CA003031092","2013-07-16",69.98,44.60,0.00,0.00,
"CA003031092","2013-07-17",74.48,50.90,38.00,0.00,
"CA003031092","2013-07-18",78.98,56.84,0.00,0.00,
"CA003031092","2013-07-19",77.90,52.70,0.00,0.00,
"CA003031092","2013-07-20",78.08,52.70,0.00,0.00,
"CA003031092","2013-07-21",71.42,53.60,0.00,0.00,
"CA003031092","2013-07-22",74.48,57.38,100.00,0.00,
"CA003031092","2013-07-23",71.78,54.68,2.00,0.00,
"CA003031092","2013-07-24",71.42,56.48,6.00,0.00,
"CA003031092","2013-07-25",64.94,55.22,8.00,0.00,
"CA003031092","2013-07-26",73.76,47.66,0.00,0.00,
"CA003031092","2013-07-27",66.56,52.70,0.00,0.00,
"CA003031092","2013-07-28",64.04,45.86,10.00,0.00,
"CA003031092","2013-07-30",66.38,39.02,0.00,0.00,
"CA003031092","2013-07-31",76.82,45.14,0.00,0.00,
"CA003031092","2013-08-01",68.54,54.32,0.00,0.00,
"CA003031092","2013-08-04",71.78,46.58,0.00,0.00,
"CA003031092","2013-08-05",69.80,52.70,86.00,0.00,
"CA003031092","2013-08-06",69.80,48.56,34.00,0.00,
"CA003031092","2013-08-07",72.68,49.64,62.00,0.00,
"CA003031092","2013-08-08",59.00,52.34,14.00,0.00,
"CA003031092","2013-08-09",69.80,52.70,0.00,0.00,
"CA003031092","2013-08-10",77.36,51.62,4.00,0.00,
"CA003031092","2013-08-11",78.80,51.98,0.00,0.00,
"CA003031092","2013-08-12",74.66,55.94,0.00,0.00,
"CA003031092","2013-08-13",77.00,52.52,0.00,0.00,
"CA003031092","2013-08-14",84.38,53.06,0.00,0.00,
"CA003031092","2013-08-15",84.92,55.22,0.00,0.00,
"CA003031092","2013-08-16",84.74,55.22,0.00,0.00,
"CA003031092","2013-08-17",81.68,52.88,6.00,0.00,
"CA003031092","2013-08-18",81.50,53.78,0.00,0.00,
"CA003031092","2013-08-19",78.62,50.90,0.00,0.00,
"CA003031092","2013-08-20",75.20,46.58,0.00,0.00,
"CA003031092","2013-08-21",73.40,41.36,0.00,0.00,
"CA003031092","2013-08-22",82.22,43.16,0.00,0.00,
"CA003031092","2013-08-23",78.08,49.64,0.00,0.00,
"CA003031092","2013-08-24",80.78,53.42,0.00,0.00,
"CA003031092","2013-08-25",79.52,51.26,0.00,0.00,
"CA003031092","2013-08-28",81.50,46.22,0.00,0.00,
"CA003031092","2013-08-30",78.44,50.72,4.00,0.00,
"CA003031092","2013-08-31",73.22,42.44,0.00,0.00,
"CA003031092","2013-09-01",82.04,43.34,0.00,0.00,
"CA003031092","2013-09-02",82.22,49.64,0.00,0.00,
"CA003031092","2013-09-03",74.48,52.34,0.00,0.00,
"CA003031092","2013-09-04",86.18,52.34,0.00,0.00,
"CA003031092","2013-09-05",84.56,53.06,0.00,0.00,
"CA003031092","2013-09-06",68.90,55.76,150.00,0.00,
"CA003031092","2013-09-07",57.20,54.32,200.00,0.00,
"CA003031092","2013-09-08",71.60,52.70,10.00,0.00,
"CA003031092","2013-09-09",76.10,53.24,0.00,0.00,
"CA003031092","2013-09-10",75.02,46.04,0.00,0.00,
"CA003031092","2013-09-11",77.00,45.32,0.00,0.00,
"CA003031092","2013-09-12",83.84,48.92,0.00,0.00,
"CA003031092","2013-09-13",81.50,51.80,0.00,0.00,
"CA003031092","2013-09-14",74.66,52.88,0.00,0.00,
"CA003031092","2013-09-15",78.44,50.00,0.00,0.00,
"CA003031092","2013-09-16",80.24,51.80,0.00,0.00,
"CA003031092","2013-09-17",69.98,49.10,38.00,0.00,
"CA003031092","2013-09-18",51.80,42.80,162.00,0.00,
"CA003031092","2013-09-19",63.68,40.28,0.00,0.00,
"CA003031092","2013-09-20",72.68,39.38,0.00,0.00,
"CA003031092","2013-09-21",75.20,41.90,0.00,0.00,
"CA003031092","2013-09-22",68.18,38.84,0.00,0.00,
"CA003031092","2013-09-23",63.68,41.54,0.00,0.00,
"CA003031092","2013-09-24",57.92,39.02,0.00,0.00,
"CA003031092","2013-09-25",52.34,34.88,0.00,0.00,
"CA003031092","2013-09-26",51.08,33.08,0.00,0.00,
"CA003031092","2013-09-27",57.38,31.46,0.00,0.00,
"CA003031092","2013-09-28",60.80,31.46,0.00,0.00,
"CA003031092","2013-09-29",60.80,38.48,0.00,0.00,
"CA003031092","2013-09-30",57.74,35.96,0.00,0.00,
"CA003031092","2013-10-01",56.12,32.90,0.00,0.00,
"CA003031092","2013-10-02",50.18,27.86,0.00,0.00,
"CA003031092","2013-10-03",48.02,28.04,3.00,0.00,
"CA003031092","2013-10-04",57.92,24.80,0.00,0.00,
"CA003031092","2013-10-05",58.82,39.20,0.00,0.00,
"CA003031092","2013-10-06",64.04,37.76,0.00,0.00,
"CA003031092","2013-10-07",64.22,42.08,0.00,0.00,
"CA003031092","2013-10-10",54.32,36.68,138.00,0.00,
"CA003031092","2013-10-11",46.94,30.20,0.00,0.00,
"CA003031092","2013-10-12",46.76,32.72,0.00,0.00,
"CA003031092","2013-10-13",48.02,33.44,0.00,0.00,
"CA003031092","2013-10-14",51.98,26.06,0.00,0.00,
"CA003031092","2013-10-15",61.88,27.86,0.00,0.00,
"CA003031092","2013-10-17",49.64,29.84,0.00,0.00,
"CA003031092","2013-10-18",62.60,28.22,0.00,0.00,
"CA003031092","2013-10-19",55.58,38.84,0.00,0.00,
"CA003031092","2013-10-20",57.02,30.92,0.00,0.00,
"CA003031092","2013-10-22",60.26,33.62,0.00,0.00,
"CA003031092","2013-10-24",71.42,30.74,0.00,0.00,
"CA003031092","2013-10-25",56.12,34.70,0.00,0.00,
"CA003031092","2013-10-26",68.54,32.18,0.00,0.00,
"CA003031092","2013-10-27",47.30,19.76,92.00,44.00,40.00
"CA003031092","2013-10-28",21.38,11.84,0.00,0.00,40.00
"CA003031092","2013-10-29",37.22,13.28,0.00,0.00,40.00
"CA003031092","2013-10-30",46.04,28.58,0.00,0.00,30.00
"CA003031092","2013-10-31",53.24,32.36,0.00,0.00,10.00
"CA003031092","2013-11-01",51.08,36.32,0.00,0.00,10.00
"CA003031092","2013-11-02",39.38,28.40,62.00,155.00,50.00
"CA003031092","2013-11-03",29.66,18.86,4.00,16.00,20.00
"CA003031092","2013-11-04",25.70,15.08,11.00,0.00,40.00
"CA003031092","2013-11-05",35.06,8.42,0.00,0.00,40.00
"CA003031092","2013-11-06",39.74,24.08,0.00,0.00,30.00
"CA003031092","2013-11-07",34.34,19.40,0.00,0.00,20.00
"CA003031092","2013-11-08",41.18,23.00,10.00,10.00,20.00
"CA003031092","2013-11-09",40.64,15.80,0.00,0.00,10.00
"CA003031092","2013-11-10",20.12,12.20,16.00,22.00,10.00
"CA003031092","2013-11-11",34.88,7.16,0.00,0.00,30.00
"CA003031092","2013-11-12",51.44,21.74,0.00,0.00,30.00
"CA003031092","2013-11-13",46.94,37.22,0.00,0.00,10.00
"CA003031092","2013-11-14",45.32,25.70,0.00,0.00,10.00
"CA003031092","2013-11-15",40.28,25.16,0.00,2.00,10.00
"CA003031092","2013-11-16",27.50,8.42,10.00,69.00,0.00
"CA003031092","2013-11-17",12.92,-5.44,0.00,4.00,20.00
"CA003031092","2013-11-18",15.44,3.38,0.00,0.00,30.00
"CA003031092","2013-11-19",6.08,-1.30,10.00,0.00,30.00
"CA003031092","2013-11-20",15.08,-8.14,0.00,0.00,40.00
"CA003031092","2013-11-21",31.64,8.78,0.00,0.00,20.00
"CA003031092","2013-11-22",19.76,0.86,0.00,0.00,20.00
"CA003031092","2013-11-23",50.90,12.56,0.00,0.00,10.00
"CA003031092","2013-11-24",49.46,26.06,0.00,0.00,10.00
"CA003031092","2013-11-25",35.60,19.22,0.00,0.00,0.00
"CA003031092","2013-11-26",50.36,21.92,0.00,0.00,0.00
"CA003031092","2013-11-27",37.94,19.40,0.00,0.00,0.00
"CA003031092","2013-11-28",48.56,18.14,0.00,0.00,0.00
"CA003031092","2013-11-29",46.22,30.20,0.00,0.00,0.00
"CA003031092","2013-11-30",43.52,22.82,0.00,0.00,0.00
"CA003031092","2013-12-01",40.46,23.54,0.00,0.00,0.00
"CA003031092","2013-12-02",26.24,4.64,136.00,140.00,10.00
"CA003031092","2013-12-03",7.34,0.86,8.00,10.00,150.00
"CA003031092","2013-12-04",3.74,-8.14,0.00,0.00,150.00
"CA003031092","2013-12-05",-3.64,-15.16,2.00,4.00,130.00
"CA003031092","2013-12-06",-12.46,-20.56,0.00,0.00,120.00
"CA003031092","2013-12-07",10.04,-22.18,0.00,0.00,120.00
"CA003031092","2013-12-08",10.58,3.02,22.00,30.00,120.00
"CA003031092","2013-12-09",26.96,8.96,28.00,40.00,160.00
"CA003031092","2013-12-10",19.40,-0.04,22.00,34.00,210.00
"CA003031092","2013-12-11",35.96,1.04,0.00,0.00,220.00
"CA003031092","2013-12-12",38.30,1.22,0.00,0.00,210.00
"CA003031092","2013-12-13",19.76,-1.48,0.00,0.00,210.00
"CA003031092","2013-12-14",46.04,3.20,0.00,0.00,180.00
"CA003031092","2013-12-15",47.66,29.30,24.00,40.00,120.00
"CA003031092","2013-12-16",31.10,16.52,26.00,50.00,180.00
"CA003031092","2013-12-17",48.20,15.44,0.00,0.00,140.00
"CA003031092","2013-12-18",37.40,1.94,54.00,106.00,90.00
"CA003031092","2013-12-19",18.50,-8.32,0.00,0.00,190.00
"CA003031092","2013-12-20",21.38,-0.40,0.00,0.00,170.00
"CA003031092","2013-12-21",12.02,-1.66,5.00,10.00,160.00
"CA003031092","2013-12-22",12.02,-4.72,6.00,10.00,170.00
"CA003031092","2013-12-23",43.70,-2.38,0.00,0.00,180.00
"CA003031092","2013-12-24",,,,,150.00
"CA003031092","2013-12-25",43.70,13.82,0.00,0.00,120.00
"CA003031092","2013-12-26",48.92,37.76,0.00,0.00,70.00
"CA003031092","2013-12-27",,,,,40.00
"CA003031092","2013-12-28",8.60,-1.48,7.00,10.00,20.00